Temperature
20 19 18 16 16 16 16 16 16 16 16 16 16 16 16 15 15 15 15 15 15 15 14 14 14 14 14 13 13 13 13 13 13 13 13 13 12 13 13 13 13 13 13
21 19 17 16 16 16 16 16 16 16 16 15 15 15 15 15 15 15 15 14 14 14 14 13 13 13 13 13 13 13 13 13 13 13 13 12 12 12 12 12 12 12 12
20 18 17 16 16 16 15 15 16 15 15 15 15 15 15 14 14 14 14 14 14 13 13 13 13 13 13 12 12 13 13 13 13 13 12 12 12 12 11 12 12 12 12
19 18 17 16 15 15 15 15 15 15 15 15 15 14 14 14 14 13 13 13 13 13 13 12 12 12 12 12 12 12 13 13 12 12 12 12 11 11 11 11 11 11 11
18 17 16 15 15 15 15 15 15 15 15 14 14 14 13 13 13 13 13 12 12 12 12 12 12 12 12 12 12 12 12 12 12 12 12 11 11 11 11 11 11 11 11
18 17 16 15 15 15 15 15 15 15 14 14 14 13 13 13 13 12 12 12 12 12 12 12 12 12 11 11 12 12 12 12 12 12 12 11 11 10 10 11 11 11 11
18 16 15 15 15 15 15 15 14 14 14 14 13 13 13 13 12 12 12 12 12 12 12 12 11 11 11 11 12 12 12 12 12 11 11 11 10 10 10 10 10 10 10
17 16 15 15 14 14 14 14 14 14 14 13 13 13 12 12 12 12 12 12 12 11 11 11 11 11 11 11 12 12 11 11 11 11 11 10 10 10 10 10 10 10 10
15 15 14 14 14 14 14 14 14 14 13 13 13 12 12 12 12 12 12 12 11 11 11 11 11 11 11 11 11 11 11 11 11 11 11 10 10 9 10 9 9 9 9
15 14 14 14 14 14 14 14 13 13 13 13 12 12 12 12 12 12 11 11 11 11 11 11 11 11 11 11 11 11 11 11 11 11 10 10 9 9 9 9 9 9 9
14 14 14 14 14 14 13 13 13 13 13 12 12 12 12 12 12 11 11 11 11 11 11 11 11 11 11 11 11 11 11 11 10 10 10 10 9 9 9 9 9 9 9
14 14 14 14 14 13 13 13 13 13 12 12 12 12 12 12 11 11 11 11 11 11 11 11 11 11 11 11 11 11 11 10 10 10 10 9 9 9 9 9 9 9 9
14 14 14 14 14 13 13 13 13 13 12 12 12 12 12 11 11 11 11 11 11 11 11 11 11 11 11 11 11 10 10 10 10 10 10 10 9 9 9 9 8 8 8
14 14 14 14 13 13 13 13 13 13 12 12 12 12 12 12 11 11 11 11 11 11 11 11 11 11 11 10 10 10 10 10 10 10 10 10 9 9 9 8 8 8 8
14 14 14 13 13 13 13 13 13 13 13 13 12 12 12 12 11 11 11 11 11 11 11 11 11 11 10 10 10 10 10 10 10 10 10 10 9 9 9 9 8 8 8
13 13 14 13 13 13 13 13 13 13 12 12 12 12 12 12 11 11 11 11 11 11 10 10 10 10 10 10 10 10 10 10 10 10 10 10 9 9 9 9 8 8 8
14 13 13 13 13 13 13 13 13 13 12 12 12 12 12 11 11 11 11 11 10 10 10 10 10 10 10 10 10 10 10 10 10 10 10 10 9 9 9 9 9 8 8
13 13 13 13 13 13 13 13 13 12 12 12 12 12 12 11 11 11 11 11 10 10 10 10 10 10 10 9 9 9 9 9 9 9 9 9 9 9 9 9 9 8 8
14 13 13 13 13 13 13 13 12 12 12 12 12 12 12 12 11 11 11 11 10 10 10 10 10 10 9 9 9 9 9 9 9 9 9 9 9 9 9 9 9 8 8
14 14 13 13 13 13 13 12 12 12 12 12 12 12 12 12 11 11 11 10 10 10 10 10 9 9 9 9 9 9 9 9 9 9 9 9 9 9 9 9 8 8 8
13 13 13 13 13 13 12 12 12 12 12 12 12 12 12 12 11 11 11 10 10 10 10 9 9 9 9 9 9 9 9 9 9 9 9 9 9 9 9 8 8 8 8
14 13 13 14 13 13 13 13 13 13 12 12 12 12 12 12 11 11 11 11 10 10 10 9 9 9 9 9 8 8 9 9 9 9 9 9 9 9 9 8 8 8 8
14 14 14 14 14 14 14 13 12 12 12 12 12 12 12 12 12 11 11 11 10 10 10 10 9 9 9 9 8 8 9 9 9 9 9 9 9 9 9 8 8 8 8
14 14 14 14 14 14 14 13 13 13 13 14 13 13 13 12 12 11 11 11 10 10 10 10 10 9 9 9 9 8 8 9 9 9 9 9 9 9 8 8 8 8 7
15 14 15 15 15 14 14 14 14 14 14 14 13 13 13 12 12 12 11 11 11 10 10 10 10 9 9 9 9 8 8 8 8 8 9 9 9 9 8 8 8 7 7
14 14 14 14 15 15 14 14 14 14 14 14 14 13 13 13 12 12 12 11 11 11 10 10 10 9 9 9 9 9 8 8 8 8 8 8 8 8 8 8 7 7 7
Wind_Speed
9 14 25 25 24 23 22 21 20 20 20 19 19 19 19 18 18 17 17 17 17 17 17 17 17 18 18 18 18 18 17 17 17 17 16 16 16 16 16 15 15 14 16
13 19 26 26 25 24 22 21 21 20 19 19 19 19 19 18 18 17 17 17 17 17 17 17 17 18 17 17 17 17 17 17 17 16 16 15 15 16 16 15 15 15 16
16 19 24 26 25 24 23 22 21 20 20 20 19 19 19 18 18 17 17 17 17 17 17 17 17 17 17 17 17 17 17 17 17 16 15 14 13 15 15 16 16 16 16
16 18 21 26 25 25 24 23 22 21 21 20 19 19 18 18 18 17 17 17 17 17 16 16 16 16 16 16 16 16 16 16 16 15 14 13 12 15 15 16 16 16 16
15 16 21 26 26 25 24 23 23 22 21 20 20 19 19 18 18 18 17 17 17 16 16 16 16 15 15 15 16 16 15 15 15 14 13 12 12 14 15 16 16 16 16
14 15 21 26 26 25 24 23 23 22 21 20 20 19 19 18 18 18 17 17 16 16 15 15 15 15 15 15 15 15 15 14 13 13 12 11 10 14 15 15 15 15 15
14 14 20 26 26 25 25 24 23 22 21 21 20 19 19 18 18 17 17 16 16 15 15 14 15 14 14 15 15 14 14 13 12 11 11 10 11 13 13 14 14 14 15
13 13 18 25 25 25 25 24 23 22 22 21 20 19 19 18 18 17 16 15 15 15 14 14 14 14 14 14 14 13 12 11 11 10 9 9 11 12 13 13 13 13 14
11 11 13 19 22 24 24 24 23 22 22 21 20 19 19 18 18 17 16 15 15 15 14 14 14 13 13 13 13 12 12 11 10 9 8 8 10 11 11 12 12 12 13
10 10 11 13 17 19 20 23 22 22 21 21 19 19 19 18 17 16 16 15 15 14 14 14 13 12 12 12 12 12 11 10 9 8 7 7 9 10 10 11 11 11 12
13 10 11 12 13 15 17 20 21 21 21 20 19 19 17 15 15 14 14 15 14 14 14 13 12 12 11 11 11 12 10 9 8 7 5 6 8 9 9 9 9 10 10
18 15 13 13 13 14 15 16 16 17 17 16 16 17 15 14 13 13 14 14 14 13 12 12 12 12 11 10 10 9 9 8 7 5 5 6 6 7 8 8 8 8 9
19 17 15 14 14 14 11 11 11 12 14 15 16 16 15 13 12 11 10 10 11 11 9 10 10 10 9 8 8 7 7 6 5 4 4 5 5 6 6 6 6 7 7
16 17 15 14 14 13 12 10 9 9 10 10 15 17 14 9 8 8 7 8 8 8 8 8 8 8 7 7 7 6 5 4 3 3 3 4 4 4 4 5 5 5 6
18 18 17 16 15 13 12 10 10 10 10 12 14 16 15 9 7 6 6 7 8 8 7 6 6 6 5 5 5 5 4 3 3 2 2 3 4 3 3 3 3 3 4
19 19 17 17 16 14 12 10 10 10 11 13 13 15 17 13 9 7 6 6 6 7 7 7 6 5 4 4 3 3 3 3 2 1 1 2 3 3 2 2 3 3 3
18 18 18 18 16 16 14 12 11 11 12 11 12 16 16 15 13 9 6 5 6 8 8 7 6 5 3 3 2 2 2 2 1 1 1 1 2 3 3 3 3 3 4
16 17 18 17 18 17 14 12 10 11 11 11 13 15 16 16 15 11 7 6 8 9 7 5 4 3 2 2 2 0 1 1 1 1 1 1 1 2 3 4 4 4 5
16 17 18 18 18 17 14 12 10 11 11 11 13 13 15 16 16 12 8 7 10 7 5 5 3 3 3 2 1 0 0 0 1 1 1 2 1 1 2 3 5 5 6
15 16 17 17 18 16 13 10 9 9 9 10 11 13 15 16 16 13 8 9 10 6 5 4 4 3 3 3 2 1 1 1 1 1 2 1 2 2 2 3 4 5 6
14 16 17 18 18 16 14 13 13 13 11 10 10 13 16 16 16 13 8 8 8 7 7 7 4 4 2 2 2 2 2 1 1 1 1 1 2 2 2 3 3 4 6
17 18 19 19 20 19 16 14 11 9 8 8 8 11 16 16 16 14 10 9 8 7 7 7 5 4 2 3 3 2 2 4 2 1 1 1 2 2 2 3 3 4 5
17 19 19 21 20 21 17 12 9 7 6 8 10 11 13 16 16 14 13 10 10 9 9 8 8 7 4 2 2 3 2 3 3 2 1 1 2 1 2 3 4 4 5
18 18 19 20 20 20 19 17 17 14 13 13 11 11 11 14 15 16 14 13 11 9 9 9 8 6 6 4 2 1 2 3 2 2 3 2 2 2 2 2 3 4 4
16 16 17 18 19 19 20 20 20 16 13 8 8 11 12 12 14 15 15 13 12 10 10 10 8 7 6 5 4 3 2 1 2 2 3 4 3 2 2 2 2 3 4
12 13 15 17 19 19 21 21 21 20 15 13 13 14 13 10 11 14 14 13 12 10 11 10 10 10 7 6 5 4 4 3 3 3 4 4 3 3 1 1 1 2 3
Wind_Direction
179 171 169 164 160 157 154 150 146 142 140 138 135 132 129 125 122 119 116 113 110 108 105 103 102 100 97 95 92 88 84 80 76 73 73 74 73 70 67 63 60 54 59
158 166 168 164 161 159 156 152 147 144 142 140 138 134 131 128 126 123 119 116 113 110 108 106 104 102 100 98 95 91 86 83 79 74 69 64 70 71 67 64 63 61 61
155 163 166 164 162 160 157 154 150 147 145 142 140 137 134 131 128 126 122 118 114 111 109 108 105 104 102 99 96 93 89 84 80 74 62 51 60 70 68 64 61 60 60
156 161 163 164 162 159 158 155 152 149 147 145 143 140 138 134 131 128 124 119 115 112 110 109 107 106 104 101 98 95 91 85 80 71 56 49 55 69 67 62 61 59 58
156 159 163 163 160 158 157 156 154 152 149 147 145 142 140 136 134 129 125 121 118 116 115 113 111 108 107 104 100 97 93 87 79 67 56 50 54 68 66 62 60 60 58
156 157 164 162 161 159 158 156 155 153 151 149 146 143 141 138 134 130 127 123 121 119 120 118 115 111 110 107 102 99 95 90 79 68 58 52 58 68 67 64 62 61 59
156 157 164 163 162 160 159 158 156 155 153 151 148 145 142 138 135 132 129 127 127 126 124 123 120 116 113 110 105 101 100 94 81 68 56 52 64 69 68 66 65 63 59
156 157 164 164 163 162 161 160 159 158 156 154 151 148 144 140 137 137 136 136 134 131 129 127 123 120 116 112 108 104 100 94 81 66 55 55 67 70 70 68 66 63 61
157 158 163 164 164 163 163 162 162 161 159 156 154 150 146 143 142 141 140 139 136 133 131 128 124 121 118 114 111 105 100 94 81 65 55 57 70 72 73 69 66 65 62
162 163 162 160 162 163 163 163 162 162 159 157 155 149 146 146 146 144 141 139 137 135 133 130 125 122 118 115 112 108 100 91 80 67 53 60 73 77 76 72 67 64 61
172 170 165 161 160 159 160 163 162 161 159 156 152 148 143 139 139 140 141 143 141 139 136 133 126 120 115 112 111 108 97 90 82 65 48 69 76 77 78 73 69 65 61
181 178 172 166 162 160 162 161 161 158 156 150 147 142 136 134 135 138 144 145 144 140 136 132 123 111 102 101 105 103 98 93 81 59 46 69 76 76 78 76 70 65 61
182 179 175 169 165 163 160 158 156 152 149 146 145 141 138 135 135 136 139 140 135 131 118 113 102 100 102 104 105 107 104 95 84 58 43 65 72 75 77 76 71 64 59
184 183 177 171 167 165 159 160 155 152 151 151 151 149 145 139 136 138 133 131 125 120 110 105 104 104 103 107 115 115 111 103 93 68 49 57 60 66 74 73 67 60 54
190 186 180 174 171 167 161 164 162 159 158 156 156 158 156 150 149 147 142 138 134 130 125 118 114 111 105 105 115 121 119 113 107 87 54 46 40 40 56 56 51 48 38
193 190 182 179 175 169 169 168 166 163 161 161 163 165 164 161 158 155 150 147 145 144 141 136 131 122 113 115 113 125 130 130 123 100 55 38 26 13 11 23 21 15 7
194 191 186 182 178 175 173 170 169 168 165 167 169 170 170 167 165 162 157 158 159 153 143 131 120 114 110 110 109 117 130 147 154 139 59 27 8 3 360 349 342 341 340
195 191 189 186 183 181 177 173 171 171 170 171 172 174 175 173 170 165 164 169 164 154 145 135 127 117 117 123 129 117 107 158 216 241 259 289 330 341 343 343 334 328 328
197 193 191 188 185 183 179 175 171 172 175 175 175 177 180 178 175 171 174 174 163 152 149 149 132 135 145 145 143 107 334 297 267 268 261 265 268 290 315 322 330 328 324
198 195 194 191 186 182 178 173 171 173 179 179 180 182 181 182 179 175 175 170 162 152 155 151 140 125 137 143 109 40 332 303 296 273 261 266 268 279 300 313 322 320 321
197 196 196 193 188 183 184 184 184 188 187 186 186 184 184 183 180 178 175 168 167 169 169 157 141 136 128 124 89 14 341 324 278 269 258 256 271 275 286 292 301 307 308
199 198 198 197 191 188 190 189 188 180 182 183 183 186 188 185 183 185 177 176 173 168 165 165 151 141 137 145 128 100 338 331 318 284 275 251 264 276 282 285 290 294 300
201 201 201 200 195 193 187 179 169 162 162 179 191 193 192 189 186 186 183 178 176 176 179 178 169 159 161 174 158 149 160 243 298 314 291 275 271 272 279 278 279 288 294
205 202 201 201 198 194 186 184 182 187 193 197 191 190 186 188 188 188 184 181 180 181 180 182 177 167 156 171 177 158 162 164 178 309 315 301 278 263 266 268 277 291 301
207 202 201 200 198 195 191 190 190 196 197 182 173 180 186 189 189 189 186 184 184 185 183 179 175 176 173 169 169 160 153 128 163 187 276 305 316 281 260 266 281 296 307
207 204 200 199 199 195 195 194 194 196 189 178 181 187 190 190 191 191 188 188 187 187 185 183 180 181 183 175 172 167 165 169 187 185 227 263 283 290 299 302 294 299 312
Height
1474 1479 1483 1487 1491 1495 1498 1501 1504 1506 1509 1511 1513 1515 1517 1519 1520 1522 1523 1524 1526 1527 1528 1528 1529 1530 1531 1531 1532 1532 1533 1533 1534 1534 1534 1534 1534 1534 1534 1534 1533 1533 1533
1471 1477 1481 1486 1490 1494 1497 1500 1503 1506 1508 1511 1513 1515 1517 1518 1520 1522 1523 1525 1526 1527 1528 1529 1530 1531 1532 1532 1533 1533 1534 1534 1534 1535 1535 1535 1536 1536 1535 1535 1535 1535 1534
1470 1475 1480 1485 1489 1493 1497 1500 1503 1505 1508 1511 1513 1515 1517 1518 1520 1522 1524 1525 1526 1527 1529 1530 1530 1531 1532 1533 1534 1534 1535 1535 1536 1536 1536 1536 1537 1537 1537 1536 1536 1536 1536
1470 1475 1479 1484 1488 1492 1496 1499 1502 1505 1508 1510 1512 1515 1517 1518 1520 1522 1524 1525 1526 1528 1529 1530 1531 1532 1533 1534 1535 1535 1536 1536 1537 1537 1538 1538 1538 1538 1538 1538 1537 1537 1537
1470 1474 1479 1484 1488 1492 1495 1499 1502 1505 1507 1510 1512 1515 1517 1519 1520 1522 1524 1525 1527 1528 1529 1531 1532 1533 1534 1535 1536 1536 1537 1537 1538 1538 1539 1539 1539 1539 1539 1539 1538 1538 1538
1469 1474 1478 1483 1487 1491 1495 1498 1501 1504 1507 1509 1512 1514 1517 1519 1521 1522 1524 1525 1527 1528 1530 1531 1533 1534 1535 1536 1536 1537 1538 1538 1539 1539 1540 1540 1540 1540 1540 1540 1539 1539 1539
1469 1474 1478 1483 1487 1491 1494 1498 1501 1504 1506 1509 1512 1514 1516 1518 1520 1522 1524 1526 1527 1529 1530 1532 1533 1534 1536 1537 1537 1538 1539 1540 1540 1540 1541 1541 1541 1542 1541 1541 1540 1540 1540
1469 1473 1478 1483 1487 1490 1494 1497 1500 1503 1506 1509 1512 1514 1516 1518 1520 1522 1524 1526 1528 1529 1531 1533 1534 1535 1536 1537 1538 1539 1540 1541 1541 1542 1542 1542 1543 1543 1542 1542 1542 1541 1541
1470 1474 1478 1482 1486 1490 1493 1497 1500 1503 1506 1508 1511 1514 1516 1518 1520 1522 1524 1526 1528 1530 1531 1533 1535 1536 1537 1538 1539 1540 1541 1542 1542 1543 1543 1543 1544 1544 1543 1543 1543 1542 1541
1470 1474 1477 1481 1485 1489 1492 1496 1499 1502 1505 1508 1511 1513 1515 1518 1520 1522 1524 1526 1528 1530 1532 1534 1535 1536 1538 1539 1540 1541 1542 1543 1543 1544 1544 1544 1544 1545 1544 1544 1544 1543 1542
1469 1473 1476 1480 1484 1487 1491 1495 1498 1501 1504 1507 1510 1512 1515 1517 1520 1522 1524 1527 1529 1531 1532 1534 1536 1537 1538 1540 1541 1542 1543 1544 1544 1545 1545 1545 1545 1545 1545 1545 1544 1544 1543
1465 1470 1474 1478 1481 1485 1489 1493 1497 1500 1503 1506 1509 1511 1514 1517 1519 1522 1524 1527 1529 1531 1533 1535 1536 1538 1539 1540 1542 1543 1544 1544 1545 1545 1546 1546 1546 1546 1546 1546 1545 1544 1544
1461 1466 1470 1475 1479 1483 1487 1491 1494 1498 1501 1504 1507 1510 1513 1516 1519 1521 1524 1526 1529 1531 1533 1535 1536 1538 1540 1541 1542 1543 1544 1545 1546 1546 1546 1546 1547 1547 1546 1546 1546 1545 1544
1460 1464 1468 1472 1476 1481 1485 1488 1492 1495 1499 1502 1506 1509 1512 1515 1518 1521 1523 1526 1528 1530 1533 1535 1537 1538 1540 1542 1543 1544 1545 1545 1546 1546 1546 1547 1547 1547 1547 1546 1546 1545 1545
1457 1461 1465 1469 1473 1478 1482 1486 1490 1493 1497 1501 1504 1508 1511 1514 1517 1520 1523 1525 1528 1530 1533 1535 1537 1539 1540 1542 1543 1544 1545 1545 1546 1546 1547 1547 1547 1547 1547 1546 1546 1545 1545
1453 1458 1462 1466 1471 1475 1479 1483 1487 1491 1495 1499 1503 1506 1510 1513 1516 1519 1522 1525 1527 1530 1532 1535 1537 1538 1540 1541 1543 1544 1545 1545 1546 1546 1546 1546 1546 1546 1546 1546 1545 1545 1544
1449 1454 1459 1463 1468 1472 1477 1481 1485 1489 1493 1497 1501 1505 1509 1512 1515 1518 1521 1524 1527 1529 1532 1534 1536 1538 1540 1541 1542 1543 1544 1545 1545 1545 1546 1545 1545 1545 1545 1545 1544 1544 1543
1446 1450 1455 1460 1464 1469 1474 1479 1483 1487 1491 1495 1499 1503 1507 1510 1514 1517 1520 1523 1526 1528 1531 1533 1535 1537 1539 1540 1542 1543 1543 1544 1544 1545 1545 1545 1545 1544 1544 1544 1543 1543 1542
1443 1447 1451 1456 1460 1465 1471 1476 1481 1485 1489 1493 1497 1501 1505 1508 1512 1515 1518 1522 1524 1527 1530 1532 1534 1536 1538 1539 1541 1542 1542 1543 1543 1543 1543 1543 1543 1543 1543 1543 1542 1541 1540
1439 1443 1447 1451 1457 1462 1468 1473 1478 1482 1486 1490 1494 1498 1502 1506 1510 1513 1516 1520 1522 1525 1528 1530 1533 1535 1537 1538 1539 1540 1541 1541 1541 1541 1542 1542 1542 1542 1541 1541 1540 1540 1539
1434 1439 1443 1447 1452 1457 1462 1467 1471 1476 1481 1485 1490 1495 1499 1503 1507 1510 1514 1517 1520 1523 1525 1528 1531 1533 1535 1536 1538 1539 1539 1539 1539 1540 1540 1540 1540 1540 1539 1539 1538 1537 1536
1428 1433 1437 1441 1446 1451 1456 1462 1467 1472 1477 1482 1487 1491 1495 1499 1503 1507 1511 1514 1517 1520 1523 1526 1528 1530 1533 1535 1536 1537 1537 1538 1537 1538 1538 1538 1538 1538 1537 1537 1536 1535 1533
1421 1425 1430 1435 1440 1445 1451 1458 1464 1469 1474 1478 1482 1486 1490 1495 1499 1503 1507 1511 1514 1517 1520 1523 1525 1528 1530 1532 1534 1536 1536 1535 1535 1536 1535 1536 1536 1535 1535 1534 1533 1532 1530
1414 1419 1424 1429 1434 1440 1446 1451 1456 1460 1465 1469 1474 1480 1486 1491 1495 1500 1504 1507 1511 1514 1517 1520 1523 1525 1527 1529 1531 1533 1534 1534 1534 1533 1534 1534 1533 1533 1532 1531 1530 1529 1527
1408 1413 1418 1423 1428 1434 1439 1444 1450 1455 1460 1466 1471 1477 1482 1486 1491 1495 1499 1503 1507 1510 1513 1517 1519 1522 1524 1526 1528 1529 1531 1532 1532 1532 1531 1531 1531 1530 1529 1528 1527 1525 1524
1402 1406 1411 1416 1421 1427 1432 1438 1443 1449 1454 1460 1465 1471 1476 1481 1485 1490 1494 1498 1502 1506 1509 1513 1516 1519 1521 1523 1525 1526 1528 1529 1529 1529 1529 1528 1527 1527 1526 1525 1523 1522 1520